Hitachimaru — JD2063 — position and weather

sailwx.info

Track history (hours):
 
Tides and Currents Weather Stations Pressure Air Temp Water Temp Dewpoint Dewpoint Depression Visibility Wind Speed Wind Dir Waves Ship Positions

Hitachimaru

Last reported at 2014-Oct-19 11:33 UTC. Time now 2014-Oct-22 13:52 UTC.
Position N 34°37' E 134°57'.

Length 83 m; draft 4.5 m.

Type: Cargo ship. MMSI: 431301756.

Date/timePositionNaut miles runAvg speedWind from/ knotsBaromVisibWave heightAir tempDewpointWater temp
2014-Oct-19 11:33N 34°37' E 134°57'9 9.1
2014-Oct-19 10:32N 34°30' E 135°04'1412.3
2014-Oct-19 09:26N 34°17' E 134°59'1112.6
2014-Oct-19 08:33N 34°06' E 135°00'24410.0
2014-Oct-18 08:14N 35°12' E 139°46'811.9
2014-Oct-18 07:33N 35°19' E 139°43'6 6.3
2014-Oct-18 06:33N 35°24' E 139°49'3 2.8
2014-Oct-18 05:33N 35°22' E 139°51'0 0.0
2014-Oct-18 04:33N 35°22' E 139°51'0 0.0
2014-Oct-18 03:33N 35°22' E 139°51'0 0.0
2014-Oct-18 02:33N 35°22' E 139°51'0 0.0
2014-Oct-18 01:33N 35°22' E 139°51'0 0.0
2014-Oct-18 00:33N 35°22' E 139°51'0 0.0
2014-Oct-17 23:33N 35°22' E 139°51'0 0.0
2014-Oct-17 22:33N 35°22' E 139°51'0 0.0
2014-Oct-17 21:33N 35°22' E 139°51'0 0.0
2014-Oct-17 20:33N 35°22' E 139°51'0 0.0
2014-Oct-17 19:34N 35°22' E 139°51'2 2.0
2014-Oct-17 18:33N 35°22' E 139°49'0 0.0
2014-Oct-17 17:33N 35°22' E 139°49'0 0.0
2014-Oct-17 16:33N 35°22' E 139°49'0 0.0
2014-Oct-17 15:34N 35°22' E 139°49'0 0.0
2014-Oct-17 14:33N 35°22' E 139°49'0 0.0
2014-Oct-17 13:33N 35°22' E 139°49'0 0.0
2014-Oct-17 12:34N 35°22' E 139°49'0 0.0
2014-Oct-17 11:33N 35°22' E 139°49'0 0.0
2014-Oct-17 10:33N 35°22' E 139°49'0 0.1
2014-Oct-17 09:33N 35°22' E 139°49'16 2.0
2014-Oct-17 01:33N 35°37' E 139°58'0 0.0
2014-Oct-16 16:18N 35°37' E 139°58'8 0.6
2014-Oct-16 02:32N 35°30' E 139°53'1111.0
2014-Oct-16 01:33N 35°21' E 139°45'1110.1
2014-Oct-16 00:31N 35°11' E 139°47'246 9.4
2014-Oct-14 22:26N 33°60' E 135°01'1112.4
2014-Oct-14 21:33N 34°11' E 135°02'1311.8
2014-Oct-14 20:28N 34°22' E 135°09'1 0.5
2014-Oct-14 18:27N 34°23' E 135°10'0 0.0
2014-Oct-14 17:33N 34°23' E 135°10'0 0.0
2014-Oct-14 15:33N 34°23' E 135°10'0 0.0
2014-Oct-14 14:09N 34°23' E 135°10'0 0.0
2014-Oct-14 13:15N 34°23' E 135°10'0 0.0
2014-Oct-14 11:27N 34°23' E 135°10'0 0.0
2014-Oct-14 03:15N 34°23' E 135°10'0 0.0
2014-Oct-14 01:27N 34°23' E 135°10'0 0.0
2014-Oct-14 00:21N 34°23' E 135°10'0 0.0
2014-Oct-13 23:27N 34°23' E 135°10'0 0.0
2014-Oct-13 22:27N 34°23' E 135°10'0 0.0
2014-Oct-13 20:27N 34°23' E 135°10'0 0.0
2014-Oct-13 19:15N 34°23' E 135°10'0 0.0
2014-Oct-13 18:09N 34°23' E 135°10'0 0.0
2014-Oct-13 17:15N 34°23' E 135°10'0 0.0
2014-Oct-13 13:21N 34°23' E 135°10'0 0.0
2014-Oct-13 12:32N 34°23' E 135°10'0 0.0
2014-Oct-13 10:26N 34°23' E 135°10'0 0.0
2014-Oct-13 09:32N 34°23' E 135°10'0 0.0
2014-Oct-13 08:32N 34°23' E 135°10'0 0.0
2014-Oct-13 07:32N 34°23' E 135°10'0 0.0
2014-Oct-13 06:32N 34°23' E 135°10'0 0.0
2014-Oct-13 03:26N 34°23' E 135°10'0 0.0
2014-Oct-13 02:14N 34°23' E 135°10'0 0.0
2014-Oct-12 23:32N 34°23' E 135°10'0 0.0
2014-Oct-12 22:26N 34°23' E 135°10'0 0.0
2014-Oct-12 21:20N 34°23' E 135°10'0 0.0
2014-Oct-12 20:14N 34°23' E 135°10'0 0.0
2014-Oct-12 19:32N 34°23' E 135°10'0 0.0
2014-Oct-12 17:26N 34°23' E 135°10'0 0.0
2014-Oct-12 16:32N 34°23' E 135°10'0 0.0
2014-Oct-12 04:26N 34°23' E 135°10'0 0.0
2014-Oct-11 23:07N 34°23' E 135°10'0 0.0
2014-Oct-11 22:19N 34°23' E 135°10'4 2.4
2014-Oct-11 20:29N 34°27' E 135°12'1112.0
2014-Oct-11 19:32N 34°35' E 135°21'5 5.2
2014-Oct-11 18:34N 34°34' E 135°27'0 0.0
2014-Oct-11 17:28N 34°34' E 135°27'0 0.0
2014-Oct-11 16:10N 34°34' E 135°27'0 0.0
2014-Oct-11 13:28N 34°34' E 135°27'0 0.0
2014-Oct-11 08:33N 34°34' E 135°27'1 0.7
2014-Oct-11 06:32N 34°35' E 135°28'0 0.0
2014-Oct-11 05:26N 34°35' E 135°28'0 0.0
2014-Oct-11 04:32N 34°35' E 135°28'0 0.0
2014-Oct-11 03:32N 34°35' E 135°28'0 0.0
2014-Oct-11 02:33N 34°35' E 135°28'2 0.1
2014-Oct-10 15:14N 34°34' E 135°27'3 3.7
2014-Oct-10 14:33N 34°36' E 135°25'6 5.9
2014-Oct-10 13:31N 34°33' E 135°18'0 0.0
2014-Oct-10 12:25N 34°33' E 135°18'1 0.9
2014-Oct-10 11:33N 34°32' E 135°18'1212.1
2014-Oct-10 10:33N 34°23' E 135°08'9 9.0
2014-Oct-10 09:33N 34°14' E 135°07'0 0.0
2014-Oct-09 23:30N 34°15' E 135°07'0 0.4
2014-Oct-09 22:33N 34°14' E 135°07'1 1.5
2014-Oct-09 21:33N 34°15' E 135°06'0 0.0
2014-Oct-09 20:33N 34°15' E 135°06'0 0.0
2014-Oct-09 19:30N 34°15' E 135°05'0 0.0
2014-Oct-09 18:18N 34°15' E 135°05'0 0.1
2014-Oct-09 17:24N 34°15' E 135°06'0 0.0
2014-Oct-09 16:30N 34°15' E 135°06'0 0.0
2014-Oct-09 15:33N 34°15' E 135°06'0 0.0
2014-Oct-09 14:32N 34°15' E 135°06'0 0.1
2014-Oct-09 13:32N 34°15' E 135°06'0 0.0
2014-Oct-09 12:29N 34°15' E 135°06'  
Track history (hours):
 
Tides and Currents Weather Stations Pressure Air Temp Water Temp Dewpoint Dewpoint Depression Visibility Wind Speed Wind Dir Waves Ship Positions

Hitachimaru

Last reported at 2014-Oct-19 11:33 UTC. Time now 2014-Oct-22 13:52 UTC.
Position N 34°37' E 134°57'.

Length 83 m; draft 4.5 m.

Type: Cargo ship. MMSI: 431301756.

Date/timePositionNaut miles runAvg speedWind from/ knotsBaromVisibWave heightAir tempDewpointWater temp
2014-Oct-19 11:33N 34°37' E 134°57'9 9.1
2014-Oct-19 10:32N 34°30' E 135°04'1412.3
2014-Oct-19 09:26N 34°17' E 134°59'1112.6
2014-Oct-19 08:33N 34°06' E 135°00'24410.0
2014-Oct-18 08:14N 35°12' E 139°46'811.9
2014-Oct-18 07:33N 35°19' E 139°43'6 6.3
2014-Oct-18 06:33N 35°24' E 139°49'3 2.8
2014-Oct-18 05:33N 35°22' E 139°51'0 0.0
2014-Oct-18 04:33N 35°22' E 139°51'0 0.0
2014-Oct-18 03:33N 35°22' E 139°51'0 0.0
2014-Oct-18 02:33N 35°22' E 139°51'0 0.0
2014-Oct-18 01:33N 35°22' E 139°51'0 0.0
2014-Oct-18 00:33N 35°22' E 139°51'0 0.0
2014-Oct-17 23:33N 35°22' E 139°51'0 0.0
2014-Oct-17 22:33N 35°22' E 139°51'0 0.0
2014-Oct-17 21:33N 35°22' E 139°51'0 0.0
2014-Oct-17 20:33N 35°22' E 139°51'0 0.0
2014-Oct-17 19:34N 35°22' E 139°51'2 2.0
2014-Oct-17 18:33N 35°22' E 139°49'0 0.0
2014-Oct-17 17:33N 35°22' E 139°49'0 0.0
2014-Oct-17 16:33N 35°22' E 139°49'0 0.0
2014-Oct-17 15:34N 35°22' E 139°49'0 0.0
2014-Oct-17 14:33N 35°22' E 139°49'0 0.0
2014-Oct-17 13:33N 35°22' E 139°49'0 0.0
2014-Oct-17 12:34N 35°22' E 139°49'0 0.0
2014-Oct-17 11:33N 35°22' E 139°49'0 0.0
2014-Oct-17 10:33N 35°22' E 139°49'0 0.1
2014-Oct-17 09:33N 35°22' E 139°49'16 2.0
2014-Oct-17 01:33N 35°37' E 139°58'0 0.0
2014-Oct-16 16:18N 35°37' E 139°58'8 0.6
2014-Oct-16 02:32N 35°30' E 139°53'1111.0
2014-Oct-16 01:33N 35°21' E 139°45'1110.1
2014-Oct-16 00:31N 35°11' E 139°47'246 9.4
2014-Oct-14 22:26N 33°60' E 135°01'1112.4
2014-Oct-14 21:33N 34°11' E 135°02'1311.8
2014-Oct-14 20:28N 34°22' E 135°09'1 0.5
2014-Oct-14 18:27N 34°23' E 135°10'0 0.0
2014-Oct-14 17:33N 34°23' E 135°10'0 0.0
2014-Oct-14 15:33N 34°23' E 135°10'0 0.0
2014-Oct-14 14:09N 34°23' E 135°10'0 0.0
2014-Oct-14 13:15N 34°23' E 135°10'0 0.0
2014-Oct-14 11:27N 34°23' E 135°10'0 0.0
2014-Oct-14 03:15N 34°23' E 135°10'0 0.0
2014-Oct-14 01:27N 34°23' E 135°10'0 0.0
2014-Oct-14 00:21N 34°23' E 135°10'0 0.0
2014-Oct-13 23:27N 34°23' E 135°10'0 0.0
2014-Oct-13 22:27N 34°23' E 135°10'0 0.0
2014-Oct-13 20:27N 34°23' E 135°10'0 0.0
2014-Oct-13 19:15N 34°23' E 135°10'0 0.0
2014-Oct-13 18:09N 34°23' E 135°10'0 0.0
2014-Oct-13 17:15N 34°23' E 135°10'0 0.0
2014-Oct-13 13:21N 34°23' E 135°10'0 0.0
2014-Oct-13 12:32N 34°23' E 135°10'0 0.0
2014-Oct-13 10:26N 34°23' E 135°10'0 0.0
2014-Oct-13 09:32N 34°23' E 135°10'0 0.0
2014-Oct-13 08:32N 34°23' E 135°10'0 0.0
2014-Oct-13 07:32N 34°23' E 135°10'0 0.0
2014-Oct-13 06:32N 34°23' E 135°10'0 0.0
2014-Oct-13 03:26N 34°23' E 135°10'0 0.0
2014-Oct-13 02:14N 34°23' E 135°10'0 0.0
2014-Oct-12 23:32N 34°23' E 135°10'0 0.0
2014-Oct-12 22:26N 34°23' E 135°10'0 0.0
2014-Oct-12 21:20N 34°23' E 135°10'0 0.0
2014-Oct-12 20:14N 34°23' E 135°10'0 0.0
2014-Oct-12 19:32N 34°23' E 135°10'0 0.0
2014-Oct-12 17:26N 34°23' E 135°10'0 0.0
2014-Oct-12 16:32N 34°23' E 135°10'0 0.0
2014-Oct-12 04:26N 34°23' E 135°10'0 0.0
2014-Oct-11 23:07N 34°23' E 135°10'0 0.0
2014-Oct-11 22:19N 34°23' E 135°10'4 2.4
2014-Oct-11 20:29N 34°27' E 135°12'1112.0
2014-Oct-11 19:32N 34°35' E 135°21'5 5.2
2014-Oct-11 18:34N 34°34' E 135°27'0 0.0
2014-Oct-11 17:28N 34°34' E 135°27'0 0.0
2014-Oct-11 16:10N 34°34' E 135°27'0 0.0
2014-Oct-11 13:28N 34°34' E 135°27'0 0.0
2014-Oct-11 08:33N 34°34' E 135°27'1 0.7
2014-Oct-11 06:32N 34°35' E 135°28'0 0.0
2014-Oct-11 05:26N 34°35' E 135°28'0 0.0
2014-Oct-11 04:32N 34°35' E 135°28'0 0.0
2014-Oct-11 03:32N 34°35' E 135°28'0 0.0
2014-Oct-11 02:33N 34°35' E 135°28'2 0.1
2014-Oct-10 15:14N 34°34' E 135°27'3 3.7
2014-Oct-10 14:33N 34°36' E 135°25'6 5.9
2014-Oct-10 13:31N 34°33' E 135°18'0 0.0
2014-Oct-10 12:25N 34°33' E 135°18'1 0.9
2014-Oct-10 11:33N 34°32' E 135°18'1212.1
2014-Oct-10 10:33N 34°23' E 135°08'9 9.0
2014-Oct-10 09:33N 34°14' E 135°07'0 0.0
2014-Oct-09 23:30N 34°15' E 135°07'0 0.4
2014-Oct-09 22:33N 34°14' E 135°07'1 1.5
2014-Oct-09 21:33N 34°15' E 135°06'0 0.0
2014-Oct-09 20:33N 34°15' E 135°06'0 0.0
2014-Oct-09 19:30N 34°15' E 135°05'0 0.0
2014-Oct-09 18:18N 34°15' E 135°05'0 0.1
2014-Oct-09 17:24N 34°15' E 135°06'0 0.0
2014-Oct-09 16:30N 34°15' E 135°06'0 0.0
2014-Oct-09 15:33N 34°15' E 135°06'0 0.0
2014-Oct-09 14:32N 34°15' E 135°06'0 0.1
2014-Oct-09 13:32N 34°15' E 135°06'0 0.0
2014-Oct-09 12:29N 34°15' E 135°06'  

Dump ship's entire track history